User: anonymous   Login
Location: Vale
(35.4830°N, 81.3830°W)
Time: 14:01:32
(UTC-04:00)
Language:

Cosmos 2237 Rocket - Orbit

View from above orbital plane
View from above orbital plane
View from above satellite
View from above satellite

Ground track
Ground track

The orbit data is extracted from the following two-line orbital elements,

1 22566U 93016B   16236.22567952  .00000168  00000-0  11146-3 0  9997
2 22566  71.0100 332.3571 0012034 234.2973 125.7030 14.14932279209120
Epoch (UTC): 23 August 2016 05:24:58
Eccentricity: 0.0012034
inclination: 71.0100°
perigee height: 834 km
apogee height: 851 km
right ascension of ascending node: 332.3571°
argument of perigee: 234.2973°
revolutions per day: 14.14932279
mean anomaly at epoch: 125.7030°
orbit number at epoch: 20912

The dashed part of the orbit path shows where the satellite is in the earth's shadow,  

DLR